Location: Champs
(48.8539°N, 2.6040°E)
Time: 18:59:28
(UTC+00:00)

ATLAS CENTAUR R/B - Pass Details

Date: 07 June 2022
Orbit: 443 x 688 km, 64.6° (Epoch: 07 June)

Event Time Altitude Azimuth Distance (km) Brightness Sun altitude
Rises 20:51:31 0° 311° (NW) 3,045 7.3 -8.2°
Reaches altitude 10° 20:54:22 10° 295° (WNW) 2,103 5.5 -8.5°
Maximum altitude 20:57:53 21° 248° (WSW) 1,479 3.7 -8.9°
Drops below altitude 10° 21:01:15 10° 200° (SSW) 2,007 3.9 -9.2°
Enters shadow 21:03:11 - 188° (S) 2,609 4.3 -9.4°
